Regional Weather Roundup
Issued by NWS

Home | Current Version | Previous Version | Graphics & Text | Print | Product List | Glossary On
Versions: 1 2 3 4 5 6 7 8 9 10 11 12 13 14 15 16 17 18 19 20 21 22 23 24 25 26 27 28 29 30 31 32 33 34 35 36 37 38 39 40 41 42 43 44 45 46 47 48 49 50
000
ASUS45 KSLC 242210
RWRUT

UTAH REGIONAL WEATHER ROUNDUP
NATIONAL WEATHER SERVICE SALT LAKE CITY UT
400 PM MDT SUN SEP 24 2017

UTZ001>011-023>025-242300-

NORTHERN UTAH

CITY           SKY/WX    TMP DP  RH WIND       PRES   REMARKS
BRIGHAM CITY   CLOUDY    47  38  71 CALM      30.04R
HILL AFB       LGT RAIN  44  40  86 NW7       30.03R
LOGAN          LGT RAIN  46  40  79 W5        30.03R
OGDEN          LGT RAIN  45  41  86 NW12      30.03R
SALT LAKE CITY LGT RAIN  43  42  97 E14       30.05R FOG
TOOELE VALLEY  DRIZZLE   45  41  87 W3        30.07R
WENDOVER       CLOUDY    59  27  29 NW10G17   30.03R
HEBER CITY     MIX PCPN  36  34  93 E5        30.02R WCI  32
WEST JORDAN    CLOUDY    42  42 100 SE3       30.07R

$$

UTZ011>015-024>027-242300-

CENTRAL/NORTHEAST UTAH

CITY           SKY/WX    TMP DP  RH WIND       PRES   REMARKS
PROVO AIRPORT  LGT RAIN  43  40  89 SE8       30.07R
MOAB/CANYONLAN PTSUNNY   62  25  24 SW10      29.92R
DELTA          CLOUDY    45  37  76 SE12      30.08S
PRICE          NOT AVBL
RICHFIELD      CLOUDY    48  32  53 CALM      30.10R
ROOSEVELT      CLOUDY    48  37  66 W17G23    30.01R
VERNAL         MOSUNNY   49  37  63 W12       29.97R

$$

UTZ013>016-019>022-027-242300-

SOUTHERN UTAH

CITY           SKY/WX    TMP DP  RH WIND       PRES   REMARKS
BRYCE CANYON   MOSUNNY   48  26  42 NW12      30.07R
CEDAR CITY     SUNNY     52  33  48 N8G18     30.05R
MILFORD        CLOUDY    51  33  50 CALM      30.06S
ST GEORGE      CLOUDY    68  27  21 W8        29.97F
HANKSVILLE     SUNNY     63  28  27 NW10      29.97R
KANAB          SUNNY     63  23  22 SW6G13    30.01F
BLANDING         N/A     58  15  18 SW7       30.06S

$$

REGIONAL REPORTS     COLORADO/ARIZONA

CITY           SKY/WX    TMP DP  RH WIND       PRES   REMARKS
CRAIG, CO      CLOUDY    63  21  20 W24G31    29.90S
GRAND JUNCTION MOSUNNY   62  24  23 NW14      29.92S
RIFLE, CO      MOSUNNY   60  23  24 SW9G17    29.92R
MONTROSE, CO   MOSUNNY   62  23  22 SW24G37   29.91F
CORTEZ, CO     SUNNY     61  21  21 S13       29.99F
PAGE, AZ       SUNNY     65  24  21 SE6       29.94F
GRAND CANYON   SUNNY     58  12  16 VRB6      30.03S
KINGMAN, AZ    SUNNY     69  23  17 NW7       29.97F
FLAGSTAFF, AZ  SUNNY     58  11  15 VRB6G16   30.01F

$$

REGIONAL REPORTS    NEVADA/IDAHO/WYOMING

CITY           SKY/WX    TMP DP  RH WIND       PRES   REMARKS
LAS VEGAS, NV  SUNNY     74  25  16 NW6       29.94F
ELY, NY        PTSUNNY   51  28  41 W12       30.08R
ELKO, NV       PTSUNNY   53  26  35 NW9       30.08S
POCATELLO, ID  PTSUNNY   58  32  37 W9        30.00F
BURLEY, ID     SUNNY     56  30  37 W14G20    30.02S
FORT BRIDGER,  DRIZZLE   37  37 100 W7        30.01R WCI  31
EVANSTON, WY   LGT SNOW  35  35 100 N12       29.99R FOG     WCI  27
ROCK SPRINGS,  CLOUDY    42  35  76 NE18G29   29.97R

$$



USA.gov is the U.S. government's official web portal to all federal, state and local government web resources and services.